Regional Weather Roundup
Issued by NWS Upton, NY

Current Version | Previous Version | Text Only | Print | Product List | Glossary On
Versions: 1 2 3 4 5 6 7 8 9 10 11 12 13 14 15 16 17 18 19 20 21 22 23 24 25 26 27
000
ASUS41 KOKX 201205
RWROKX

Regional Weather Roundup
National Weather Service New York NY
700 AM EST TUE FEB 20 2018

Note: "FAIR" indicates few or no clouds below 12,000 feet with no
significant weather and/or obstructions to visibility.

NYZ071-072-176-178-NJZ106-104-201300-
New York City Metro Area

CITY           SKY/WX    TMP DP  RH WIND       PRES   REMARKS
Central Park   CLOUDY    50  50 100 W6        30.33S FOG
Bronx Bot Gard   N/A     50  48  93 S2        30.32R
Bronx Lehman C   N/A     50  48  93 SW7         N/A
LaGuardia Arpt DRZL/FOG  51  49  92 SW8       30.31R VSB 1
Queens College   N/A     52  52 100 SW12        N/A
Kennedy Intl   DRZL/FOG  46  46 100 S7        30.33R VSB 1/8
Breezy Point     N/A     43 N/A N/A S3          N/A
Brooklyn Coll    N/A     50  48  93 SW3         N/A
Staten Island    N/A     48  48 100 SW3         N/A
Newark/Liberty FOG       49  49 100 SW5       30.32R VSB 1/4
Teterboro      FOG       48  48 100 SW6       30.31R VSB 1/2
$$

NYZ177-179-078>081-201300-
Long Island New York

CITY           SKY/WX    TMP DP  RH WIND       PRES   REMARKS
Jones Beach      N/A     43 N/A N/A SW3         N/A
Wantagh          N/A     45  45 100 SW3         N/A
Hempstead      NOT AVBL
Matinecock Pt    N/A     46 N/A N/A SW7         N/A
Farmingdale    FOG       45  45 100 SW3       30.32R VSB 1/2
MacArthur/ISP  FOG       45  45 100 S3        30.32R VSB 1/8
Shirley        FOG       46  46 100 SW7       30.33R VSB 3/4
Mt Sinai Harb    N/A    N/A N/A N/A SW5         N/A
Westhampton    FOG       46  46 100 SW9       30.34R VSB 1/2
East Hampton   FOG       46  46  99 SW9       30.33R VSB 1/2
Southold         N/A     46  46 100 S5          N/A
Montauk          N/A     48  48 100 SW8       30.34R
$$

NYZ052-065-067-201300-
Hudson Valley

CITY           SKY/WX    TMP DP  RH WIND       PRES   REMARKS
White Plains   FOG       47  47 100 VRB3      30.29R VSB 1/2
Larchmont Harb   N/A     46 N/A N/A S6          N/A
Croton On Huds   N/A     39 N/A N/A CALM        N/A
Somers           N/A     45  45 100 SW6         N/A
Brewster         N/A     43  41  93 S1          N/A
Newburgh       NOT AVBL
Montgomery     CLOUDY    40  40 100 SW7       30.27S FOG
Otisville        N/A     41  41 100 W8          N/A
Warwick          N/A     39  39 100 SE2         N/A
Suffern          N/A     45  45 100 SW5         N/A
Poughkeepsie   FOG       41  41 100 S3        30.28S VSB 3/4
Albany         CLOUDY    44  41  89 S12       30.23S FOG
$$

NJZ001-105-106-008-010-013-015-019>022-104-201300-
New Jersey

CITY           SKY/WX    TMP DP  RH WIND       PRES   REMARKS
Newark/Liberty FOG       49  49 100 SW5       30.32R VSB 1/4
Teterboro      FOG       48  48 100 SW6       30.31R VSB 1/2
Caldwell       CLOUDY    46  46 100 SW3       30.32R FOG
Somerville     FOG       40  40 100 CALM      30.32R VSB 1/4
Linden         CLOUDY    48  48  99 CALM      30.32R FOG
Perth Amboy      N/A     46 N/A N/A W6          N/A
Sussex         FOG       41  41 100 SW6       30.31R VSB 1/2
Andover          N/A     41  41 100 VRB3      30.31R
Trenton        CLOUDY    52  51  97 SW7       30.34R FOG
Millville      CLOUDY    56  55  97 SW7       30.36R
Atlantic City  CLOUDY    59  59 100 SW15G23   30.36R FOG
Wrightstown    CLOUDY    56  55  99 W13       30.31R
Toms River     CLOUDY    57  56  96 SW15      30.34R
Belmar         CLOUDY    56  55  97 SW10G17   30.34  FOG
$$

PAZ047>061-062-071-201300-
Eastern Pennsylvania

CITY           SKY/WX    TMP DP  RH WIND       PRES   REMARKS
Philadelphia   DRIZZLE   51  51 100 SW14      30.35R FOG
Allentown      FOG       38  36  92 CALM      30.33R VSB 1/4
Scranton       CLOUDY    43  43 100 S5        30.28R FOG
$$

CTZ002-004>006-009-010-012-RIZ004-006-007-MAZ004-011-015-201300-
Southern New England

 In CT

CITY           SKY/WX    TMP DP  RH WIND       PRES   REMARKS
Bradley Intl   MOCLDY    47  46  97 S9        30.27R FOG
Hartford       CLOUDY    48  47  96 S10       30.29R
Danbury        CLOUDY   N/A N/A N/A W3        30.30R
Wtrbury/Oxford FOG       44  44 100 SW5       30.29R VSB 1/8
Norwalk Harbor   N/A     43 N/A N/A SW10        N/A
Bridgeport     FOG       43  42  97 SW3       30.31R VSB 3/4
Meriden        CLOUDY    46  46 100 S6        30.30R FOG
New Haven      FOG       44  43  96 S6        30.31R VSB 1/4
Chester        FOG       48  48 100 VRB7      30.30R VSB<1/4
Groton         FOG       44  43  96 CALM      30.31R VSB 1/4
Willimantic    CLOUDY    50  48  93 SW7       30.29R

 In RI

CITY           SKY/WX    TMP DP  RH WIND       PRES   REMARKS
Providence     CLOUDY    52  51  97 SW10      30.29R
Block Island   LGT RAIN  45  45 100 SW10      30.33R VSB 1/4
Westerly       FOG       47  47 100 S5        30.32R VSB 1/4

In MA

CITY           SKY/WX    TMP DP  RH WIND       PRES   REMARKS
Boston         CLOUDY    51  49  92 SW9       30.25R
Worcester      CLOUDY    47  46  97 SW13      30.24R FOG
Westfield      CLOUDY    45  45 100 S3        30.25R
Provincetown   LGT RAIN  43  43 100 SW15      30.27R VSB 1/2
Nantucket      FOG       45  45 100 SW14      30.34R VSB 1/4
$$

ANZ330-335-338-340-345-350-353-355-201300-
Coastal Marine Observations


STATION/POSITION TIME  SKY/WX   TEMP    WIND        PRES    VSBY  WAVE
                                AIR SEA DIR/SP/G                  HT/PER
                 (UTC)          (F)     (DEG/KT/KT) (MB)    (MI)  (FT/S)
NY Harb Entrance 1150            43 40  200/ 10/ 10 1026.6          3/ 6
20 S Fire Island 1150            45 42  220/ 12/ 14 1027.3          4/ 5
15 E Barnegat Li 1130               41                N/A           4/10
Hudson Canyon    1150            49 46  220/ 12/ 14 1028.3          5/12
Kings Point      1148            49 37  290/  8/  9 1027.4
Execution Rocks  NOT AVBL
Western LI Sound NOT AVBL
Central LI Sound 1130            42     230/  2/  4   N/A           1
Robbins Reef     1148            49     260/  5/  6 1027.2
$$


>>>>>>>>>>>>>>>>>>>>>>>>>>>> KEY <<<<<<<<<<<<<<<<<<<<<<<<<<<
>                                                          <
>     SKY/WX - Sky Condition/Present Weather               <
>     TMP    - Temperature in Fahrenheit                   <
>     DP     - Dew Point in Fahrenheit                     <
>     RH     - Relative Humidity in Percent                <
>     WIND   - Direction (from) and Speed in MPH           <
>     PRES   - Mean Sea Level Pressure (inches of Hg)      <
>     WCI    - Wind Chill Index                            <
>     VSB    - Visibility in Miles                         <
>     HX     - Heat Index                                  <
>     TC     - Temperature in Celsius                      <
>     VRB    - Varibale Wind Direction                     <
>                                                          <
>>>>>>>>>>>>>>>>>>>>>>>>>>>> KEY <<<<<<<<<<<<<<<<<<<<<<<<<<<




USA.gov is the U.S. government's official web portal to all federal, state and local government web resources and services.